Hourly Data Report for July 09, 2020

All times are specified in Local Standard Time (LST). Add 1 hour to adjust for Daylight Saving Time where and when it is observed.

OTTAWA INTL A
ONTARIO
Current Station Operator: NAVCAN

45°19'00.000" N
75°40'00.000" W
114.90 m
6106001
71628
YOW

Download Data

Hourly Data (July 2020)
Hourly Data Report for July 9, 2020
TIME Temp Definition
°C
Dew Point Definition
°C
Rel Hum Definition
%
Wind Dir Definition
10's deg

Wind Spd Definition
km/h
Visibility Definition
km
Stn Press Definition
kPa
Hmdx Definition


Wind Chill Definition


Weather Definition


00:00 23.1 19.8 81 18 10 24.1 99.85 31   LegendNANA
01:00 22.4 19.6 84 20 9 24.1 99.84 30   Mainly Clear
02:00 22.0 19.7 86 20 7 24.1 99.84 29   LegendNANA
03:00 20.5 19.1 92 36 3 24.1 99.86 27   LegendNANA
04:00 19.8 18.7 93 12 5 24.1 99.89     Mainly Clear
05:00 20.0 19.3 96 16 5 24.1 99.94 27   LegendNANA
06:00 22.4 20.6 90 14 4 24.1 99.99 30   LegendNANA
07:00 24.3 21.1 82 18 7 24.1 100.01 33   Mainly Clear
08:00 26.5 21.6 74 17 8 24.1 100.00 35   LegendNANA
09:00 29.0 21.4 63 19 11 24.1 99.97 38   LegendNANA
10:00 30.5 20.6 55 24 5 24.1 99.97 39   Mainly Clear
11:00 33.5 17.8 39 23 15 24.1 99.94 39   LegendNANA
12:00 34.2 16.7 35 25 19 24.1 99.93 39   LegendNANA
13:00 34.8 16.7 33 22 17 24.1 99.90 40   Mostly Cloudy
14:00 33.5 18.2 39 21 16 24.1 99.89 40   LegendNANA
15:00 33.8 18.6 40 25 15 24.1 99.86 40   LegendNANA
16:00 33.5 17.5 38 20 11 24.1 99.84 39   Mostly Cloudy
17:00 32.9 18.8 43 22 7 24.1 99.82 40   LegendNANA
18:00 31.2 20.1 51 6 9 24.1 99.80 39   LegendNANA
19:00 29.9 20.1 55 28 9 24.1 99.85 38   Mostly Cloudy
20:00 26.4 20.4 69 17 9 24.1 99.85 34   LegendNANA
21:00 24.5 20.3 77 12 8 24.1 99.88 32   LegendNANA
22:00 26.0 19.8 68 16 8 24.1 99.88 33   Clear
23:00 25.4 19.6 70 17 10 24.1 99.86 33   LegendNANA

Notes on Data Quality.

Legend

  • E = Estimated
  • M = Missing
  • NA = Not Available*
  • [empty] = Indicates an unobserved value
Date modified: